This is the latest recevied weather packets stored in our database for station/object W1HS. If no packets are shown the sender has not sent any weather packets the latest 10 day(s).
| Time | Temp. | Humidity | Pressure | Rain* | Wind** | Luminosity | Snow |
|---|---|---|---|---|---|---|---|
| 1777551799 | 7.78° C | 94% | 987.5 hPa | 0 mm | - | 91 W/m² | - |
| 1777551199 | 7.22° C | 95% | 987.4 hPa | 0.25 mm | - | 76 W/m² | - |
| 1777550599 | 7.22° C | 95% | 987.5 hPa | 0.25 mm | - | 84 W/m² | - |
| 1777549999 | 7.22° C | 95% | 987.7 hPa | 0.25 mm | - | 72 W/m² | - |
| 1777549399 | 7.22° C | 95% | 987.8 hPa | 0.25 mm | - | 58 W/m² | - |
| 1777548799 | 7.22° C | 94% | 987.7 hPa | 0.51 mm | - | 28 W/m² | - |
| 1777548199 | 7.22° C | 95% | 987.6 hPa | 0.51 mm | - | 51 W/m² | - |
| 1777547599 | 6.67° C | 95% | 987.8 hPa | 0.25 mm | - | 49 W/m² | - |
| 1777546999 | 6.67° C | 94% | 987.7 hPa | 0.25 mm | - | 31 W/m² | - |
| 1777546399 | 6.67° C | 94% | 987.6 hPa | 0.25 mm | - | 18 W/m² | - |
| 1777545799 | 6.67° C | 94% | 987.8 hPa | 0.51 mm | - | 16 W/m² | - |
| 1777545199 | 6.67° C | 94% | 987.7 hPa | 0.25 mm | - | 12 W/m² | - |
| 1777544599 | 6.67° C | 94% | 987.8 hPa | 0.51 mm | - | 7 W/m² | - |
| 1777543999 | 6.67° C | 94% | 987.9 hPa | 1.02 mm | - | 0 W/m² | - |
| 1777543399 | 6.67° C | 94% | 987.9 hPa | 1.02 mm | - | 0 W/m² | - |
| 1777542799 | 6.67° C | 94% | 987.9 hPa | 1.52 mm | - | 0 W/m² | - |
| 1777542199 | 6.67° C | 94% | 987.9 hPa | 1.27 mm | - | 0 W/m² | - |
| 1777541601 | 6.67° C | 94% | 988 hPa | 1.78 mm | - | 0 W/m² | - |
| 1777540999 | 6.67° C | 94% | 988.2 hPa | 2.03 mm | - | 0 W/m² | - |
| 1777540399 | 6.67° C | 94% | 988.4 hPa | 2.03 mm | - | 0 W/m² | - |
| 1777539799 | 6.67° C | 94% | 988.5 hPa | 2.29 mm | - | 0 W/m² | - |
| 1777539201 | 6.67° C | 93% | 988.7 hPa | 2.03 mm | - | 0 W/m² | - |
| 1777538599 | 6.67° C | 93% | 988.6 hPa | 2.54 mm | - | 0 W/m² | - |
| 1777537999 | 6.67° C | 92% | 988.3 hPa | 2.54 mm | - | 0 W/m² | - |
| 1777537401 | 6.67° C | 92% | 988.2 hPa | 2.29 mm | - | 0 W/m² | - |
* Rain latest hour (hover to see other rain measurements)
** Current wind speed in m/s (hover to see current wind gust speed)